Flag for Greenland Weather past 2 weeks in Danmarkshavn, Greenland

Now
44 °F

Passing clouds.


Feels Like: 39 °F
Forecast: 33 / 40 °F
Wind: 9 mph from Northwest

Location: Danmarkshavn

Current Time: Aug 5, 2015 at 7:24:34 AM

Latest Report: Aug 5, 2015 at 6:00 AM


Visibility: 31 mi

Pressure: 29.97 "Hg

Humidity: 69%

Dew point: 34 °F

Location of DanmarkshavnLocation

Historic Weather in Danmarkshavn — Graph

°F

Danmarkshavn temperature yesterday

Maximum temperature yesterday: 45 °F (at 10:00 AM)
Minimum temperature yesterday: 38 °F (at 1:00 AM)
Average temperature yesterday: 41 °F

Past Weeks' High & Low Weather Summary

 TemperatureHumidityPressure
High55 °F (Aug 1, 1:00 PM)99% (Jul 31, 9:00 AM)30.31 "Hg (Jul 31, 9:00 AM)
Low28 °F (Jul 27, 4:00 AM)47% (Aug 1, 1:00 PM)29.93 "Hg (Jul 25, 10:00 PM)
Average39 °F79%30.09 "Hg
* Reported Jul 21 6:00 AM — Aug 5 6:00 AM, Danmarkshavn, Weather by CustomWeather, © 2015

Note: Actual official high and low records may vary slightly from our data, if they occured in-between our weather recording intervals... More about our weather records

Advertising

Danmarkshavn weather history for previous 24 hours

 ConditionsComfort  
Time TempWeatherWind HumidityBarometerVisibility
6:00 AM
Wed, Aug 5
44 °FPassing clouds.9 mph69%29.97 "Hg31 mi
5:00 AM43 °FPassing clouds.8 mph70%29.98 "Hg31 mi
4:00 AM43 °FPassing clouds.9 mph69%29.99 "Hg31 mi
3:00 AM44 °FPassing clouds.14 mph66%30.00 "Hg31 mi
2:00 AM45 °FPassing clouds.14 mph64%30.01 "Hg31 mi
1:00 AM45 °FSunny.14 mph64%30.03 "Hg31 mi
12:00 AM47 °FSunny.9 mph62%30.04 "Hg31 mi
11:00 PM
Tue, Aug 4
40 °FSunny.2 mph82%30.05 "Hg31 mi
10:00 PM40 °FPassing clouds.2 mph81%30.06 "Hg31 mi
8:00 PM42 °FSunny.2 mph76%30.07 "Hg31 mi
7:00 PM41 °FPassing clouds.2 mph77%30.08 "Hg31 mi
6:00 PM42 °FPassing clouds.3 mph73%30.09 "Hg28 mi
5:00 PM41 °FSunny.2 mph76%30.09 "Hg31 mi
4:00 PM41 °FPassing clouds.2 mph77%30.11 "Hg28 mi
3:00 PM40 °FSunny.1 mph76%30.12 "Hg28 mi
2:00 PM40 °FSunny.6 mph79%30.13 "Hg28 mi
1:00 PM42 °FPassing clouds.3 mph72%30.14 "Hg28 mi
12:00 PM42 °FPassing clouds.3 mph74%30.13 "Hg31 mi
11:00 AM42 °FSunny.3 mph74%30.14 "Hg31 mi
10:00 AM45 °FPassing clouds.5 mph67%30.14 "Hg31 mi
9:00 AM43 °FPassing clouds.8 mph70%30.14 "Hg28 mi
8:00 AM44 °FPassing clouds.2 mph70%30.14 "Hg28 mi
7:00 AM44 °FPassing clouds.5 mph72%30.14 "Hg31 mi
Weather by CustomWeather, © 2015

See weather overviewHow to use our weather pages